Starlink 30959

operational
NORAD ID: 58442 Int'l Des: 2023-183 Owner: SPXS Country: US Constellation: starlink
LEOCIRCULAR

关于 Starlink 30959

正在加载描述...

实时位置

正在加载3D地球...

即将过境

高度历史

Altitude vs Time

uPlot chart will show altitude changes over time

两行轨道根数

1 58442U 23183F 25305.63080118 -.00000714 00000-0 -37759-4 0 9991
2 58442 43.0028 18.9238 0001109 273.5934 86.4781 15.02533154107457
Epoch: Nov 1, 2025 • Age: 10 hours

当前状态

高度 559.9 km
速度 7.58 km/s
星下点 -7.64°S, 42.95°W
发射日期 Nov 28, 2023
运行时间 1.9 years
类型 internet

技术详情

分类 Payload
质量 730.00 kg
干质量 700.00 kg
总质量 730.00 kg
长度 0.30 m
直径 4.10 m
跨度 29.00 m
形状 Box + pan
制造商 SPXS
平台类型 Starlink V2M
阶段状态 In Orbit
所有者/国家 SPXS/US

大型星座

Loading constellations...